User: anonymous   Login
Location: Tel Aviv
(32.0670°N, 34.7670°E)
Time: 19:15:52
(UTC+03:00)
Language:

Altair - Orbit

View from above orbital plane
View from above orbital plane
View from above satellite
View from above satellite

Ground track
Ground track

The orbit data is extracted from the following two-line orbital elements,

1 00050U 60009B   24206.89247976 -.00000041  00000-0  43135-3 0  9991
2 00050  47.2290 150.5417 0112703 111.4556 249.8296 12.20141939853177
Epoch (UTC): 24 July 2024 21:25:10
Eccentricity: 0.0112703
inclination: 47.2290°
perigee height: 1502 km
apogee height: 1682 km
right ascension of ascending node: 150.5417°
argument of perigee: 111.4556°
revolutions per day: 12.20141939
mean anomaly at epoch: 249.8296°
orbit number at epoch: 85317

The dashed part of the orbit path shows where the satellite is in the earth's shadow,  

DLR